THOR ABLESTAR DEB, 225

Orbit data source: Space-Track

THOR ABLESTAR DEB, 225 is space debris in LEO originally from a launch on Thu, 29 Jun 1961 UTC launched from the Air Force Eastern Test Range (AFETR). Debris objects in space refer to the collection of defunct objects orbiting the Earth. Examples of debris include non-operational satellites, rocket bodies, and fragments generated from explosions, collisions, or faulty payload assembly.

Loading next visibility...
THOR ABLESTAR DEB details
Identifier
225, 1961-015BM
Orbit
LEO
Last TLE update11 hours ago
Origin
Flag of USUSAF SSD (US)
ManufacturerUnknown
MissionSpacecraft
Bus & MotorUnknown
MassUnknown
Launch date (UTC)
1961-06-29 (64 years ago)
Launch vehicleUnknown
Launch site
Air Force Eastern Test Range (AFETR)
Object type
Payload
Rocket body
Debris
Shape & HBRUnknown
Radar Cross SectionSmall (<0.1 m²)

Expand to show TLE details & history

TLE from 11 hours ago
0 THOR ABLESTAR DEB
1   225U 61015BM  25036.07322820  .00003372  00000-0  11008-2 0  9999
2   225  66.7980 118.9633 0106832 233.7474 125.3720 14.36591304286718
Epoch: 2025-02-05T01:45Z
Definitive object data (Epoch: 2025-02-05T01:45:26.916Z)
Latitude-0.00009°
Longitude-42.86829°
Altitude816.651 km
Speed7.422 km/s
True Right ascension07h 55m 51s
True Declination0° 00' 00"
Sunlit
Object was in full shadow at TLE epoch
Visualization TLE readout
Latitude-38.5023°
Longitude155.74329°
Altitude708.616 km
Speed7.54 km/s
Apparent Right ascension23h 48m 06s
Apparent Declination-47° 45' 01"
Sunlit
Object is in daylight
Visualization observer readout
Local Sidereal Time14:52:24
Azimuth119.001° SE
Elevation-56.379°
Doppler factor1
Orbital elements
Apogee altitude844.486 km
Perigee altitude691.796 km
Semi-major axis7,146.278 km
Eccentricity0.0106832
Inclination66.798°
RAAN118.9633°
Arg. of periapsis233.7474°
True anomaly126.36252°
Mean anomaly125.372°
Eccentric anomaly125.86803°
Mean motion3.59272 °/min
BSTAR0.0011008
Orbital period100.2 mins
Loading maneuver chart data...

THOR ABLESTAR DEB Visibility forecast

Observer location: undefined°, undefined

Span
Click to sort rows by Start time (UTC) header in descending order
Start Az.
Max El. time (UTC)
Max El. Az.
Max El.
End time (UTC)
End Az.
9 mins2025-02-05 15:40:11.461Z344.584° N2025-02-05 15:45:11.461Z68.333° E34.926°2025-02-05 15:49:11.461Z125.38° SE
6 mins2025-02-05 17:25:11.461Z287.36° WNW2025-02-05 17:27:11.461Z257.332° W21.995°2025-02-05 17:31:11.461Z203.242° SW
9 mins2025-02-06 06:17:11.461Z176.383° S2025-02-06 06:21:11.461Z115.879° SE34.308°2025-02-06 06:26:11.461Z43.96° NE
8 mins2025-02-06 08:01:11.461Z260.262° W2025-02-06 08:04:11.461Z304.077° NW26.853°2025-02-06 08:09:11.461Z9.286° NNE
|